TimeEDT,TemperatureF,Dew PointF,Humidity,Sea Level PressureIn,VisibilityMPH,Wind Direction,Wind SpeedMPH,Gust SpeedMPH,PrecipitationIn,Events,Conditions,WindDirDegrees,DateUTC
12:51 AM,61.0,50.0,67,30.00,10.0,SSE,8.1,-,N/A,,Scattered Clouds,160,2013-04-16 04:51:00
1:51 AM,59.0,50.0,72,30.00,10.0,South,4.6,-,N/A,,Partly Cloudy,170,2013-04-16 05:51:00
2:51 AM,57.9,50.0,75,29.98,10.0,SSE,5.8,-,N/A,,Clear,150,2013-04-16 06:51:00
3:51 AM,57.9,51.1,78,29.98,10.0,SSE,8.1,-,N/A,,Partly Cloudy,150,2013-04-16 07:51:00
4:51 AM,57.9,51.1,78,29.99,10.0,SSE,6.9,-,N/A,,Mostly Cloudy,160,2013-04-16 08:51:00
5:51 AM,59.0,51.1,75,30.00,10.0,South,6.9,-,N/A,,Mostly Cloudy,170,2013-04-16 09:51:00
6:51 AM,60.1,52.0,75,30.04,10.0,South,11.5,-,N/A,,Mostly Cloudy,180,2013-04-16 10:51:00
7:51 AM,61.0,52.0,72,30.06,10.0,South,12.7,-,N/A,,Overcast,180,2013-04-16 11:51:00
8:51 AM,64.0,53.1,67,30.07,10.0,South,12.7,20.7,N/A,,Mostly Cloudy,190,2013-04-16 12:51:00
9:51 AM,66.9,55.0,66,30.09,10.0,SSW,13.8,19.6,N/A,,Overcast,210,2013-04-16 13:51:00
10:51 AM,70.0,57.9,65,30.09,10.0,SW,13.8,-,N/A,,Mostly Cloudy,220,2013-04-16 14:51:00
11:19 AM,69.8,57.2,64,30.11,10.0,SW,18.4,25.3,N/A,,Mostly Cloudy,220,2013-04-16 15:19:00
11:51 AM,70.0,61.0,73,30.10,10.0,WSW,12.7,20.7,0.00,Rain,Light Rain,250,2013-04-16 15:51:00
12:05 PM,71.6,60.8,69,30.09,10.0,SSW,11.5,17.3,0.00,,Overcast,210,2013-04-16 16:05:00
12:51 PM,71.1,59.0,66,30.06,10.0,South,15.0,-,0.00,,Overcast,190,2013-04-16 16:51:00
1:51 PM,75.0,61.0,62,30.07,10.0,SSW,15.0,23.0,N/A,,Overcast,210,2013-04-16 17:51:00
2:51 PM,77.0,60.1,56,30.06,10.0,WSW,12.7,-,N/A,,Mostly Cloudy,240,2013-04-16 18:51:00
3:51 PM,77.0,59.0,54,30.04,10.0,WSW,11.5,20.7,N/A,,Scattered Clouds,250,2013-04-16 19:51:00
4:51 PM,78.1,59.0,52,30.02,10.0,NNW,9.2,-,N/A,,Overcast,340,2013-04-16 20:51:00
5:15 PM,75.2,57.2,53,30.03,10.0,NNW,11.5,-,N/A,Thunderstorm,Thunderstorm,330,2013-04-16 21:15:00
5:51 PM,64.9,60.1,84,30.09,2.0,NNW,21.9,32.2,0.14,Rain-Thunderstorm,Thunderstorms and Rain,340,2013-04-16 21:51:00
6:03 PM,64.4,59.0,83,30.12,2.0,NNW,19.6,31.1,0.09,Rain,Light Rain,330,2013-04-16 22:03:00
6:12 PM,64.4,60.8,88,30.14,2.0,NNW,13.8,21.9,0.10,Rain-Thunderstorm,Heavy Thunderstorms and Rain,330,2013-04-16 22:12:00
6:51 PM,62.1,61.0,96,30.14,4.0,NNW,16.1,-,0.22,Rain-Thunderstorm,Light Thunderstorms and Rain,340,2013-04-16 22:51:00
7:08 PM,60.8,60.8,100,30.17,1.0,NNW,15.0,-,0.07,Rain-Thunderstorm,Heavy Thunderstorms and Rain,330,2013-04-16 23:08:00
7:15 PM,60.8,60.8,100,30.17,3.0,NNW,9.2,-,0.14,Rain-Thunderstorm,Thunderstorms and Rain,330,2013-04-16 23:15:00
7:39 PM,60.8,60.8,100,30.15,4.0,ENE,5.8,-,0.23,Rain,Light Rain,60,2013-04-16 23:39:00
7:51 PM,59.0,59.0,100,30.14,4.0,NE,4.6,-,0.25,Rain,Light Rain,40,2013-04-16 23:51:00
8:51 PM,59.0,59.0,100,30.15,10.0,Calm,Calm,-,0.00,,Overcast,0,2013-04-17 00:51:00
9:51 PM,60.1,60.1,100,30.15,10.0,NW,3.5,-,N/A,,Scattered Clouds,310,2013-04-17 01:51:00
10:51 PM,59.0,59.0,100,30.15,6.0,NW,5.8,-,0.00,,Scattered Clouds,320,2013-04-17 02:51:00
11:10 PM,57.2,57.2,100,30.17,4.0,Calm,Calm,-,N/A,,Mostly Cloudy,0,2013-04-17 03:10:00
11:51 PM,57.9,57.0,97,30.17,6.0,North,5.8,-,N/A,,Overcast,360,2013-04-17 03:51:00
11:59 PM,57.2,55.4,94,30.18,6.0,NNE,4.6,-,N/A,,Overcast,20,2013-04-17 03:59:00